Location: Napa Junction
(38.1874°N, 122.2508°W)
Time: 22:10:04
(UTC+00:00)

CENTAUR R/B - Pass Details

Date: 13 December 2024
Orbit: 654 x 1528 km, 63.4° (Epoch: 19 January)

Event Time Altitude Azimuth Distance (km) Brightness Sun altitude
Exits shadow 12:59:53 - 196° (SSW) 2,378 4.5 -26.2°
Reaches altitude 10° 13:00:10 10° 195° (SSW) 2,274 4.4 -26.1°
Maximum altitude 13:05:15 59° 117° (ESE) 986 2.7 -25.2°
Drops below altitude 10° 13:11:32 10° 39° (NE) 2,795 5.2 -23.9°
Sets 13:14:29 0° 36° (NE) 3,896 6.0 -23.4°
